SWA8312 KCLE-KCMH

Flight info

Callsign SWA8312
Flight time 0h 23m
Altitude 20000
Route LBRON WAAHU BUGZZ CBUSS2
Aircraft B737/M-SDE2E3FGHIRWXY/LB1

Departure

Time 2026-05-09 00:27
Airport Cleveland Hopkins International Airport (KCLE)

Arrival

Time 2026-05-09 00:51
Airport John Glenn Columbus International Airport (KCMH)
Time Latitude Longitude Altitude Speed Heading
2026-05-08 23:55 41.41220 -81.84130 799 ft 0 kts 131°
2026-05-09 00:16 41.41222 -81.84134 799 ft 2 kts 131°
2026-05-09 00:16 41.41235 -81.84154 799 ft 3 kts 129°
2026-05-09 00:16 41.41247 -81.84175 799 ft 3 kts 124°
2026-05-09 00:17 41.41258 -81.84198 799 ft 3 kts 115°
2026-05-09 00:17 41.41264 -81.84222 799 ft 3 kts 89°
2026-05-09 00:17 41.41259 -81.84242 799 ft 2 kts 50°
2026-05-09 00:17 41.41250 -81.84257 799 ft 2 kts 50°
2026-05-09 00:18 41.41249 -81.84259 799 ft 0 kts 50°
2026-05-09 00:22 41.41251 -81.84255 799 ft 2 kts 49°
2026-05-09 00:22 41.41281 -81.84208 799 ft 13 kts 50°
2026-05-09 00:22 41.41374 -81.84061 799 ft 25 kts 51°
2026-05-09 00:22 41.41467 -81.83957 799 ft 14 kts 355°
2026-05-09 00:23 41.41519 -81.83948 799 ft 2 kts 83°
2026-05-09 00:23 41.41525 -81.83902 799 ft 11 kts 78°
2026-05-09 00:23 41.41539 -81.83809 799 ft 0 kts 85°
2026-05-09 00:23 41.41538 -81.83802 799 ft 4 kts 108°
2026-05-09 00:24 41.41530 -81.83803 799 ft 0 kts 259°
2026-05-09 00:24 41.41531 -81.83837 799 ft 12 kts 271°
2026-05-09 00:24 41.41520 -81.83944 799 ft 11 kts 268°
2026-05-09 00:24 41.41532 -81.83975 799 ft 1 kts 326°
2026-05-09 00:25 41.41532 -81.83976 799 ft 1 kts 326°
2026-05-09 00:26 41.41552 -81.83990 799 ft 7 kts 325°
2026-05-09 00:26 41.41575 -81.84066 799 ft 7 kts 298°
2026-05-09 00:26 41.41592 -81.84098 799 ft 2 kts 255°
2026-05-09 00:26 41.41584 -81.84118 799 ft 10 kts 236°
2026-05-09 00:27 41.41443 -81.84342 799 ft 65 kts 233°
2026-05-09 00:27 41.40997 -81.85047 799 ft 131 kts 230°
2026-05-09 00:27 41.40314 -81.86142 1008 ft 167 kts 230°
2026-05-09 00:27 41.39546 -81.87330 1756 ft 172 kts 221°
2026-05-09 00:28 41.38453 -81.88146 2277 ft 196 kts 198°
2026-05-09 00:28 41.37073 -81.88599 2984 ft 207 kts 192°
2026-05-09 00:28 41.35686 -81.88963 4112 ft 202 kts 192°
2026-05-09 00:28 41.34376 -81.89259 5400 ft 187 kts 192°
2026-05-09 00:29 41.33032 -81.89527 6005 ft 211 kts 191°
2026-05-09 00:29 41.31454 -81.89837 6262 ft 247 kts 192°
2026-05-09 00:29 41.29694 -81.90189 6957 ft 263 kts 192°
2026-05-09 00:29 41.27850 -81.90553 7897 ft 270 kts 192°
2026-05-09 00:30 41.25987 -81.90999 8830 ft 275 kts 197°
2026-05-09 00:30 41.24168 -81.91830 9839 ft 274 kts 207°
2026-05-09 00:30 41.22430 -81.92859 10868 ft 276 kts 208°
2026-05-09 00:30 41.20661 -81.93936 11490 ft 292 kts 210°
2026-05-09 00:31 41.18745 -81.95137 11998 ft 310 kts 211°
2026-05-09 00:31 41.16790 -81.96374 12792 ft 318 kts 211°
2026-05-09 00:31 41.14749 -81.97659 13494 ft 324 kts 211°
2026-05-09 00:31 41.12703 -81.98948 13885 ft 325 kts 211°
2026-05-09 00:32 41.10659 -82.00231 14019 ft 325 kts 211°
2026-05-09 00:32 41.08639 -82.01498 14025 ft 326 kts 211°
2026-05-09 00:32 41.06582 -82.02785 14029 ft 326 kts 211°
2026-05-09 00:32 41.04532 -82.04067 14034 ft 326 kts 211°
2026-05-09 00:33 41.02480 -82.05349 14091 ft 329 kts 211°
2026-05-09 00:33 41.00389 -82.06651 14977 ft 329 kts 211°
2026-05-09 00:33 40.98318 -82.07945 16114 ft 330 kts 212°
2026-05-09 00:33 40.96270 -82.09283 17178 ft 327 kts 216°
2026-05-09 00:34 40.94364 -82.10877 18292 ft 322 kts 222°
2026-05-09 00:34 40.92562 -82.12637 18906 ft 335 kts 224°
2026-05-09 00:34 40.90774 -82.14460 19217 ft 354 kts 224°
2026-05-09 00:34 40.88775 -82.16500 19502 ft 374 kts 224°
2026-05-09 00:35 40.86674 -82.18651 19825 ft 389 kts 224°
2026-05-09 00:35 40.84507 -82.20851 19908 ft 393 kts 224°
2026-05-09 00:35 40.82333 -82.23048 19910 ft 392 kts 224°
2026-05-09 00:35 40.80176 -82.25221 19677 ft 391 kts 223°
2026-05-09 00:36 40.78012 -82.27394 19427 ft 390 kts 223°
2026-05-09 00:36 40.75855 -82.29556 19176 ft 389 kts 223°
2026-05-09 00:36 40.73702 -82.31710 18926 ft 389 kts 223°
2026-05-09 00:36 40.71551 -82.33860 18570 ft 386 kts 223°
2026-05-09 00:37 40.69435 -82.35974 17786 ft 386 kts 223°
2026-05-09 00:37 40.67319 -82.38086 17071 ft 382 kts 223°
2026-05-09 00:37 40.65186 -82.40138 16319 ft 379 kts 219°
2026-05-09 00:37 40.62937 -82.41891 15576 ft 378 kts 213°
2026-05-09 00:38 40.60577 -82.43381 14838 ft 376 kts 209°
2026-05-09 00:38 40.58149 -82.44669 14100 ft 374 kts 206°
2026-05-09 00:38 40.55676 -82.45803 13358 ft 372 kts 202°
2026-05-09 00:38 40.53207 -82.46735 12640 ft 369 kts 200°
2026-05-09 00:39 40.50729 -82.47589 11915 ft 365 kts 199°
2026-05-09 00:39 40.48318 -82.48420 11281 ft 359 kts 199°
2026-05-09 00:39 40.45960 -82.49248 11105 ft 341 kts 199°
2026-05-09 00:39 40.43749 -82.50032 10997 ft 322 kts 200°
2026-05-09 00:40 40.41629 -82.50788 10809 ft 308 kts 200°
2026-05-09 00:40 40.39596 -82.51513 10625 ft 295 kts 200°
2026-05-09 00:40 40.37669 -82.52204 10463 ft 282 kts 200°
2026-05-09 00:41 40.34044 -82.53506 10161 ft 258 kts 200°
2026-05-09 00:41 40.32348 -82.54117 10018 ft 248 kts 200°
2026-05-09 00:41 40.30655 -82.54723 9701 ft 259 kts 200°
2026-05-09 00:41 40.28899 -82.55349 9304 ft 268 kts 199°
2026-05-09 00:42 40.27105 -82.55991 8900 ft 267 kts 199°
2026-05-09 00:42 40.25282 -82.56309 8573 ft 269 kts 178°
2026-05-09 00:42 40.23484 -82.55648 8289 ft 269 kts 165°
2026-05-09 00:42 40.21689 -82.55184 7893 ft 258 kts 185°
2026-05-09 00:43 40.19921 -82.55417 7522 ft 254 kts 192°
2026-05-09 00:43 40.18183 -82.55739 7144 ft 252 kts 192°
2026-05-09 00:43 40.16449 -82.56052 6750 ft 251 kts 192°
2026-05-09 00:43 40.14728 -82.56364 6367 ft 249 kts 192°
2026-05-09 00:44 40.13027 -82.56671 5991 ft 247 kts 192°
2026-05-09 00:44 40.11353 -82.56985 5615 ft 246 kts 192°
2026-05-09 00:44 40.09659 -82.57296 5202 ft 245 kts 192°
2026-05-09 00:44 40.07976 -82.57615 4814 ft 245 kts 192°
2026-05-09 00:45 40.06293 -82.57937 4413 ft 244 kts 193°
2026-05-09 00:45 40.04618 -82.58301 4094 ft 242 kts 199°
2026-05-09 00:45 40.03262 -82.59492 4009 ft 237 kts 232°
2026-05-09 00:45 40.02398 -82.61328 4014 ft 237 kts 242°
2026-05-09 00:46 40.01655 -82.63159 3999 ft 223 kts 243°
2026-05-09 00:46 40.00891 -82.64857 3971 ft 208 kts 235°
2026-05-09 00:46 40.00117 -82.66373 3929 ft 198 kts 240°
2026-05-09 00:46 39.99477 -82.67928 3736 ft 193 kts 243°
2026-05-09 00:47 39.99057 -82.69574 3476 ft 193 kts 264°
2026-05-09 00:47 39.99135 -82.71347 3275 ft 195 kts 275°
2026-05-09 00:47 39.99289 -82.73062 3026 ft 188 kts 274°
2026-05-09 00:47 39.99404 -82.74718 2790 ft 176 kts 272°
2026-05-09 00:48 39.99494 -82.76221 2557 ft 162 kts 272°
2026-05-09 00:48 39.99578 -82.77673 2338 ft 157 kts 273°
2026-05-09 00:48 39.99655 -82.79019 2177 ft 144 kts 273°
2026-05-09 00:48 39.99727 -82.80291 1955 ft 138 kts 273°
2026-05-09 00:49 39.99796 -82.81538 1752 ft 136 kts 273°
2026-05-09 00:49 39.99861 -82.82748 1578 ft 131 kts 273°
2026-05-09 00:49 39.99928 -82.83923 1416 ft 128 kts 273°
2026-05-09 00:49 39.99985 -82.85088 1267 ft 133 kts 274°
2026-05-09 00:50 40.00064 -82.86294 1118 ft 133 kts 273°
2026-05-09 00:50 40.00132 -82.87502 906 ft 132 kts 274°
2026-05-09 00:50 40.00199 -82.88685 831 ft 125 kts 275°
2026-05-09 00:50 40.00258 -82.89650 823 ft 80 kts 276°
2026-05-09 00:51 40.00284 -82.90103 823 ft 34 kts 277°
2026-05-09 00:51 40.00291 -82.90313 823 ft 18 kts 248°
2026-05-09 00:51 40.00209 -82.90367 823 ft 6 kts 187°
2026-05-09 00:51 40.00205 -82.90367 823 ft 0 kts 187°
2026-05-09 00:53 40.00197 -82.90367 823 ft 5 kts 171°
2026-05-09 00:54 40.00169 -82.90261 823 ft 21 kts 89°
2026-05-09 00:54 40.00161 -82.90050 823 ft 23 kts 92°
2026-05-09 00:54 40.00147 -82.89855 823 ft 20 kts 95°
2026-05-09 00:54 40.00141 -82.89733 823 ft 22 kts 94°
2026-05-09 00:55 40.00132 -82.89510 823 ft 25 kts 94°
2026-05-09 00:55 40.00120 -82.89290 823 ft 25 kts 95°
2026-05-09 00:55 40.00102 -82.88991 823 ft 23 kts 94°
2026-05-09 00:55 40.00095 -82.88854 823 ft 22 kts 94°
2026-05-09 00:56 40.00084 -82.88603 823 ft 23 kts 93°
2026-05-09 00:56 40.00076 -82.88461 823 ft 22 kts 92°
2026-05-09 00:56 39.99993 -82.88385 823 ft 13 kts 118°
2026-05-09 00:56 39.99985 -82.88172 823 ft 22 kts 98°
2026-05-09 00:57 39.99981 -82.88064 823 ft 15 kts 93°
2026-05-09 00:57 39.99943 -82.87961 823 ft 11 kts 147°
2026-05-09 00:57 39.99928 -82.87905 823 ft 3 kts 138°
2026-05-09 00:57 39.99914 -82.87904 823 ft 4 kts 216°
2026-05-09 00:58 39.99916 -82.87925 823 ft 0 kts 330°
2026-05-09 00:59 39.99917 -82.87926 823 ft 2 kts 324°
2026-05-09 00:59 39.99888 -82.87979 823 ft 16 kts 180°
2026-05-09 00:59 39.99839 -82.87827 823 ft 29 kts 65°
2026-05-09 00:59 39.99924 -82.87710 823 ft 3 kts 333°
2026-05-09 01:00 39.99929 -82.87724 823 ft 1 kts 272°
2026-05-09 01:00 39.99929 -82.87725 823 ft 0 kts 272°